Time,TemperatureF,DewpointF,PressureIn,WindDirection,WindDirectionDegrees,WindSpeedMPH,WindSpeedGustMPH,Humidity,HourlyPrecipIn,Conditions,Clouds,dailyrainin,SolarRadiationWatts/m^2,SoftwareType,DateUTC
2013-05-17 00:21:00,44.0,43.0,-100.00,SW,225,4.0,6.0,96,0.06,,,0.16,1.000000,,2013-05-17 06:21:00,
2013-05-17 00:32:00,44.0,43.0,-100.00,SW,225,4.0,6.0,96,0.06,,,0.16,1.000000,,2013-05-17 06:32:00,
2013-05-17 00:42:00,44.0,43.0,-100.00,SW,225,4.0,6.0,96,0.06,,,0.16,1.000000,,2013-05-17 06:42:00,
2013-05-17 00:51:00,44.0,43.0,-100.00,SW,225,4.0,6.0,96,0.06,,,0.16,1.000000,,2013-05-17 06:51:00,
2013-05-17 01:21:00,44.0,43.0,-100.00,NW,324,1.0,4.0,98,0.04,,,0.20,1.000000,,2013-05-17 07:21:00,
2013-05-17 01:32:00,44.0,43.0,-100.00,NW,324,1.0,4.0,98,0.04,,,0.20,1.000000,,2013-05-17 07:32:00,
2013-05-17 01:43:00,44.0,43.0,-100.00,NW,324,1.0,4.0,98,0.04,,,0.20,1.000000,,2013-05-17 07:43:00,
2013-05-17 01:53:00,44.0,43.0,-100.00,NW,324,1.0,4.0,98,0.04,,,0.20,1.000000,,2013-05-17 07:53:00,
2013-05-17 02:22:00,44.0,43.0,-100.00,South,175,0.0,4.0,97,0.01,,,0.21,1.000000,,2013-05-17 08:22:00,
2013-05-17 02:33:00,44.0,43.0,-100.00,South,175,0.0,4.0,97,0.01,,,0.21,1.000000,,2013-05-17 08:33:00,
2013-05-17 02:42:00,44.0,43.0,-100.00,South,175,0.0,4.0,97,0.01,,,0.21,1.000000,,2013-05-17 08:42:00,
2013-05-17 02:51:00,44.0,43.0,-100.00,South,175,0.0,4.0,97,0.01,,,0.21,1.000000,,2013-05-17 08:51:00,
2013-05-17 03:22:00,44.0,43.0,-100.00,SW,219,1.0,3.0,98,0.01,,,0.22,1.000000,,2013-05-17 09:22:00,
2013-05-17 03:33:00,44.0,43.0,-100.00,SW,219,1.0,3.0,98,0.01,,,0.22,1.000000,,2013-05-17 09:33:00,
2013-05-17 03:42:00,44.0,43.0,-100.00,SW,219,1.0,3.0,98,0.01,,,0.22,1.000000,,2013-05-17 09:42:00,
2013-05-17 03:53:00,44.0,43.0,-100.00,SW,219,1.0,3.0,98,0.01,,,0.22,1.000000,,2013-05-17 09:53:00,
2013-05-17 04:23:00,44.0,44.0,-100.00,SSW,194,1.0,2.0,99,0.01,,,0.23,1.000000,,2013-05-17 10:23:00,
2013-05-17 04:32:00,44.0,44.0,-100.00,SSW,194,1.0,2.0,99,0.01,,,0.23,1.000000,,2013-05-17 10:32:00,
2013-05-17 04:42:00,44.0,44.0,-100.00,SSW,194,1.0,2.0,99,0.01,,,0.23,1.000000,,2013-05-17 10:42:00,
2013-05-17 04:53:00,44.0,44.0,-100.00,SSW,194,1.0,2.0,99,0.01,,,0.23,1.000000,,2013-05-17 10:53:00,
2013-05-17 05:22:00,43.0,42.0,-100.00,South,174,2.0,4.0,98,0.00,,,0.23,1.000000,,2013-05-17 11:22:00,
2013-05-17 05:34:00,43.0,42.0,-100.00,South,174,2.0,4.0,98,0.00,,,0.23,1.000000,,2013-05-17 11:34:00,
2013-05-17 05:42:00,43.0,42.0,-100.00,South,174,2.0,4.0,98,0.00,,,0.23,1.000000,,2013-05-17 11:42:00,
2013-05-17 05:52:00,43.0,42.0,-100.00,South,174,2.0,4.0,98,0.00,,,0.23,1.000000,,2013-05-17 11:52:00,
2013-05-17 06:23:00,43.0,43.0,-100.00,South,187,6.0,7.0,99,0.02,,,0.25,1.000000,,2013-05-17 12:23:00,
2013-05-17 06:32:00,43.0,43.0,-100.00,South,187,6.0,7.0,99,0.02,,,0.25,1.000000,,2013-05-17 12:32:00,
2013-05-17 06:43:00,43.0,43.0,-100.00,South,187,6.0,7.0,99,0.02,,,0.25,1.000000,,2013-05-17 12:43:00,
2013-05-17 06:53:00,43.0,43.0,-100.00,South,187,6.0,7.0,99,0.02,,,0.25,1.000000,,2013-05-17 12:53:00,
2013-05-17 07:23:00,43.0,43.0,-100.00,South,174,6.0,8.0,99,0.03,,,0.28,7.000000,,2013-05-17 13:23:00,
2013-05-17 07:33:00,43.0,43.0,-100.00,South,174,6.0,8.0,99,0.03,,,0.28,7.000000,,2013-05-17 13:33:00,
2013-05-17 07:42:00,43.0,43.0,-100.00,South,174,6.0,8.0,99,0.03,,,0.28,7.000000,,2013-05-17 13:42:00,
2013-05-17 07:52:00,43.0,43.0,-100.00,South,174,6.0,8.0,99,0.03,,,0.28,7.000000,,2013-05-17 13:52:00,
2013-05-17 08:22:00,44.0,43.0,-100.00,NNW,346,2.0,6.0,95,0.00,,,0.28,80.000000,,2013-05-17 14:22:00,
2013-05-17 08:34:00,44.0,43.0,-100.00,NNW,346,2.0,6.0,95,0.00,,,0.28,80.000000,,2013-05-17 14:34:00,
2013-05-17 08:42:00,44.0,43.0,-100.00,NNW,346,2.0,6.0,95,0.00,,,0.28,80.000000,,2013-05-17 14:42:00,
2013-05-17 08:53:00,44.0,43.0,-100.00,NNW,346,2.0,6.0,95,0.00,,,0.28,80.000000,,2013-05-17 14:53:00,
2013-05-17 09:25:00,47.0,43.0,-100.00,ESE,105,2.0,4.0,86,0.00,,,0.28,237.000000,,2013-05-17 15:25:00,
2013-05-17 09:37:00,47.0,43.0,-100.00,ESE,105,2.0,4.0,86,0.00,,,0.28,237.000000,,2013-05-17 15:37:00,
2013-05-17 09:47:00,47.0,43.0,-100.00,ESE,105,2.0,4.0,86,0.00,,,0.28,237.000000,,2013-05-17 15:47:00,
2013-05-17 09:56:00,47.0,43.0,-100.00,ESE,105,2.0,4.0,86,0.00,,,0.28,237.000000,,2013-05-17 15:56:00,
2013-05-17 10:26:00,48.0,44.0,-100.00,SSW,209,3.0,7.0,85,0.00,,,0.28,218.000000,,2013-05-17 16:26:00,
2013-05-17 10:37:00,48.0,44.0,-100.00,SSW,209,3.0,7.0,85,0.00,,,0.28,218.000000,,2013-05-17 16:37:00,
2013-05-17 10:49:00,48.0,44.0,-100.00,SSW,209,3.0,7.0,85,0.00,,,0.28,218.000000,,2013-05-17 16:49:00,
2013-05-17 10:56:00,48.0,44.0,-100.00,SSW,209,3.0,7.0,85,0.00,,,0.28,218.000000,,2013-05-17 16:56:00,
2013-05-17 10:58:00,50.0,43.0,-100.00,South,180,4.0,10.0,78,0.00,,,0.28,401.000000,,2013-05-17 16:58:00,
2013-05-17 11:29:00,50.0,43.0,-100.00,South,180,4.0,10.0,78,0.00,,,0.28,401.000000,,2013-05-17 17:29:00,
2013-05-17 11:40:00,50.0,-99.9,-100.00,South,180,4.0,10.0,78,0.00,,,0.28,401.000000,,2013-05-17 17:40:00,
2013-05-17 11:49:00,50.0,43.0,-100.00,South,180,4.0,10.0,78,0.00,,,0.28,401.000000,,2013-05-17 17:49:00,
2013-05-17 11:58:00,50.0,45.0,-100.00,SSW,197,7.0,15.0,82,0.02,,,0.30,421.000000,,2013-05-17 17:58:00,
2013-05-17 12:30:00,50.0,45.0,-100.00,SSW,197,7.0,15.0,82,0.02,,,0.30,421.000000,,2013-05-17 18:30:00,
2013-05-17 12:40:00,50.0,-99.9,-100.00,SSW,197,7.0,15.0,82,0.02,,,0.30,421.000000,,2013-05-17 18:40:00,
2013-05-17 12:50:00,-999.0,-99.9,-100.00,SSW,197,7.0,15.0,82,0.02,,,0.30,421.000000,,2013-05-17 18:50:00,
2013-05-17 12:58:00,53.0,-99.9,-100.00,NNE,21,3.0,14.0,73,0.01,,,0.31,387.000000,,2013-05-17 18:58:00,
2013-05-17 13:30:00,53.0,45.0,-100.00,NNE,21,3.0,14.0,73,0.01,,,0.31,387.000000,,2013-05-17 19:30:00,
2013-05-17 13:40:00,53.0,45.0,-100.00,NNE,21,3.0,14.0,73,0.01,,,0.31,387.000000,,2013-05-17 19:40:00,
2013-05-17 13:50:00,53.0,45.0,-100.00,NNE,21,3.0,14.0,73,0.01,,,0.31,387.000000,,2013-05-17 19:50:00,
2013-05-17 13:58:00,49.0,39.0,-100.00,SW,216,6.0,12.0,69,0.00,,,0.31,181.000000,,2013-05-17 19:58:00,
2013-05-17 14:30:00,49.0,39.0,-100.00,SW,216,6.0,12.0,69,0.00,,,0.31,181.000000,,2013-05-17 20:30:00,
2013-05-17 14:40:00,49.0,39.0,-100.00,SW,216,6.0,12.0,69,0.00,,,0.31,181.000000,,2013-05-17 20:40:00,
2013-05-17 14:49:00,49.0,39.0,-100.00,SW,216,6.0,12.0,69,0.00,,,0.31,181.000000,,2013-05-17 20:49:00,
2013-05-17 15:26:00,47.0,43.0,-100.00,South,174,13.0,18.0,85,0.00,,,0.30,209.000000,,2013-05-17 21:26:00,
2013-05-17 15:39:00,47.0,43.0,-100.00,South,174,13.0,18.0,85,0.00,,,0.30,209.000000,,2013-05-17 21:39:00,
2013-05-17 15:49:00,47.0,43.0,-100.00,South,174,13.0,18.0,85,0.00,,,0.30,209.000000,,2013-05-17 21:49:00,
2013-05-17 15:57:00,47.0,43.0,-100.00,South,174,13.0,18.0,85,0.00,,,0.30,209.000000,,2013-05-17 21:57:00,
2013-05-17 16:28:00,50.0,41.0,-100.00,South,191,11.0,18.0,71,0.00,,,0.30,371.000000,,2013-05-17 22:28:00,
2013-05-17 16:38:00,50.0,41.0,-100.00,South,191,11.0,18.0,71,0.00,,,0.30,371.000000,,2013-05-17 22:38:00,
2013-05-17 16:47:00,50.0,41.0,-100.00,South,191,11.0,18.0,71,0.00,,,0.30,371.000000,,2013-05-17 22:47:00,
2013-05-17 16:54:00,50.0,41.0,-100.00,South,191,11.0,18.0,71,0.00,,,0.30,371.000000,,2013-05-17 22:54:00,
2013-05-17 17:23:00,50.0,41.0,-100.00,SSW,203,10.0,16.0,72,0.00,,,0.30,322.000000,,2013-05-17 23:23:00,
2013-05-17 17:37:00,50.0,41.0,-100.00,SSW,203,10.0,16.0,72,0.00,,,0.30,322.000000,,2013-05-17 23:37:00,
2013-05-17 17:47:00,50.0,41.0,-100.00,SSW,203,10.0,16.0,72,0.00,,,0.30,322.000000,,2013-05-17 23:47:00,
2013-05-17 17:54:00,50.0,41.0,-100.00,SSW,203,10.0,16.0,72,0.00,,,0.30,322.000000,,2013-05-17 23:54:00,
2013-05-17 18:21:00,50.0,41.0,-100.00,SSW,206,11.0,14.0,71,0.00,,,0.30,208.000000,,2013-05-18 00:21:00,
2013-05-17 18:33:00,50.0,41.0,-100.00,SSW,206,11.0,14.0,71,0.00,,,0.30,208.000000,,2013-05-18 00:33:00,
2013-05-17 18:44:00,50.0,41.0,-100.00,SSW,206,11.0,14.0,71,0.00,,,0.30,208.000000,,2013-05-18 00:44:00,
2013-05-17 18:54:00,50.0,41.0,-100.00,SSW,206,11.0,14.0,71,0.00,,,0.30,208.000000,,2013-05-18 00:54:00,
2013-05-17 19:24:00,49.0,40.0,-100.00,SSW,205,10.0,17.0,71,0.00,,,0.23,166.000000,,2013-05-18 01:24:00,
2013-05-17 19:31:00,49.0,40.0,-100.00,SSW,205,10.0,17.0,71,0.00,,,0.23,166.000000,,2013-05-18 01:31:00,
2013-05-17 19:42:00,49.0,40.0,-100.00,SSW,205,10.0,17.0,71,0.00,,,0.23,166.000000,,2013-05-18 01:42:00,
2013-05-17 19:52:00,49.0,40.0,-100.00,SSW,205,10.0,17.0,71,0.00,,,0.23,166.000000,,2013-05-18 01:52:00,
2013-05-17 20:22:00,48.0,41.0,-100.00,SSW,201,9.0,15.0,76,0.00,,,-99.99,78.000000,,2013-05-18 02:22:00,
2013-05-17 20:31:00,48.0,41.0,-100.00,SSW,201,9.0,15.0,76,0.00,,,-99.99,78.000000,,2013-05-18 02:31:00,
2013-05-17 20:42:00,48.0,41.0,-100.00,SSW,201,9.0,15.0,76,0.00,,,-99.99,78.000000,,2013-05-18 02:42:00,
2013-05-17 20:53:00,48.0,41.0,-100.00,SSW,201,9.0,15.0,76,0.00,,,-99.99,78.000000,,2013-05-18 02:53:00,
2013-05-17 21:22:00,46.0,41.0,-100.00,SSW,204,6.0,12.0,82,0.00,,,0.22,19.000000,,2013-05-18 03:22:00,
2013-05-17 21:32:00,46.0,41.0,-100.00,SSW,204,6.0,12.0,82,0.00,,,0.22,19.000000,,2013-05-18 03:32:00,
2013-05-17 21:43:00,46.0,41.0,-100.00,SSW,204,6.0,12.0,82,0.00,,,0.22,19.000000,,2013-05-18 03:43:00,
2013-05-17 21:53:00,46.0,41.0,-100.00,SSW,204,6.0,12.0,82,0.00,,,0.22,19.000000,,2013-05-18 03:53:00,
2013-05-17 22:23:00,43.0,40.0,-100.00,SW,214,2.0,8.0,89,0.00,,,0.21,1.000000,,2013-05-18 04:23:00,
2013-05-17 22:32:00,43.0,40.0,-100.00,SW,214,2.0,8.0,89,0.00,,,0.21,1.000000,,2013-05-18 04:32:00,
2013-05-17 22:42:00,43.0,40.0,-100.00,SW,214,2.0,8.0,89,0.00,,,0.21,1.000000,,2013-05-18 04:42:00,
2013-05-17 22:52:00,43.0,40.0,-100.00,SW,214,2.0,8.0,89,0.00,,,0.21,1.000000,,2013-05-18 04:52:00,
2013-05-17 23:22:00,43.0,41.0,-100.00,South,183,2.0,7.0,91,0.00,,,0.21,1.000000,,2013-05-18 05:22:00,
2013-05-17 23:31:00,43.0,41.0,-100.00,South,183,2.0,7.0,91,0.00,,,0.21,1.000000,,2013-05-18 05:31:00,
2013-05-17 23:42:00,43.0,41.0,-100.00,South,183,2.0,7.0,91,0.00,,,0.21,1.000000,,2013-05-18 05:42:00,
2013-05-17 23:51:00,43.0,41.0,-100.00,South,183,2.0,7.0,91,0.00,,,0.21,1.000000,,2013-05-18 05:51:00,